Volver al catálogo

SCOUT A DEB

ActivoPO
NORAD 3122·DEBRIS·🇺🇸 United States

Lanzado Sep 25, 1967 desde Vandenberg Space Force Base

Loading…

Próximos Pases (próximas 24 horas)

TLE

ActualizadoSource: Space-Track

Época: Sep 14, 2026, 10:53 UTC

1 03122U 67092D   26257.45394017  .00000106  00000-0  19917-3 0  9994
2 03122  89.0509  80.0469 0185772 339.2491  46.4034 13.26030389594856

Sigue SCOUT A DEB en tiempo real con AllMySat

Download on the App Store